Location: Newark
(52.4787°S, 179.0532°W)
Time: 14:49:23
(UTC+00:00)

N. Korean satellite - Visible Passes

Search period start: 19 September 2019 00:00
Search period end: 29 September 2019 00:00
Orbit: 455 x 509 km, 97.2° (Epoch: 18 September)

Date Brightness Start Highest point End Pass type
(mag) Time Alt. Az. Time Alt. Az. Time Alt. Az.
19 Sep 10.2 07:44:51 10° SSW 07:46:25 12° WSW 07:47:58 10° W visible
19 Sep 10.3 15:20:14 10° ESE 15:21:28 11° SE 15:22:42 10° SE visible
19 Sep 6.7 16:50:34 10° NNE 16:54:12 85° E 16:57:58 10° SSW visible
20 Sep 9.7 07:18:42 10° SSW 07:21:28 19° WSW 07:24:14 10° WNW visible
20 Sep 7.9 16:25:33 10° NE 16:29:02 45° ESE 16:32:39 10° S visible
21 Sep 8.8 06:53:02 10° S 06:56:28 32° WSW 06:59:50 10° NW visible
21 Sep 9.1 16:00:52 10° ENE 16:03:58 26° ESE 16:07:08 10° S visible
22 Sep 7.6 06:27:35 10° S 06:31:21 56° WSW 06:35:03 10° NNW visible
22 Sep 9.9 15:36:38 10° E 15:38:59 16° ESE 15:41:21 10° SSE visible
22 Sep 6.7 17:08:20 10° N 17:11:57 61° W 17:15:42 10° SSW visible
23 Sep 10.1 07:37:01 10° SSW 07:39:02 14° WSW 07:41:02 10° W visible
23 Sep 10.5 15:13:56 10° ESE 15:14:04 10° SE 15:14:11 10° SE visible
23 Sep 7.0 16:43:04 10° NNE 16:46:43 71° ESE 16:50:29 10° S visible
24 Sep 9.5 07:11:03 10° SSW 07:14:04 22° WSW 07:17:02 10° WNW visible
24 Sep 8.3 16:18:08 10° NE 16:21:35 38° ESE 16:25:07 10° S visible
25 Sep 8.5 06:45:28 10° S 06:49:01 37° WSW 06:52:30 10° NW visible
25 Sep 9.4 15:53:34 10° ENE 15:56:32 23° ESE 15:59:33 10° S visible
26 Sep 10.1 15:29:30 10° E 15:31:33 14° ESE 15:33:38 10° SSE visible
26 Sep 6.6 17:00:45 10° N 17:04:26 74° WNW 17:08:14 10° SSW visible
27 Sep 10.0 07:29:15 10° SSW 07:31:36 16° WSW 07:33:57 10° W visible
27 Sep 7.4 16:35:35 10° NNE 16:39:13 60° ESE 16:42:59 10° S visible
28 Sep 9.3 07:03:25 10° S 07:06:37 25° WSW 07:09:44 10° WNW visible
28 Sep 8.7 16:10:44 10° NE 16:14:06 33° ESE 16:17:33 10° S visible
